When you browse on this site, cookies collect data to enhance your experience and personalize the content and advertising you see.
Visit our Privacy Policy to learn more. By continuing to use the site, you agree to this use of cookies and data.
  • în România
  • Lista ţărilor
  • Pe 7 zile
  • Temperatura apei
  • Meteo pe hartă
  • Widget-uri
  • user-avatar
    Intrare

    Meteo pe oră la Siedlce

    Astăzi, 26 August, Luni

    Timp Temperatura Precipitaţii Vânt Presiune Umiditate
    00:00 +18°C° 0 mm 3 m/s 755 mmHg 74%
    01:00 +17°C° 0 mm 3 m/s 755 mmHg 76%
    02:00 +17°C° 0 mm 3 m/s 755 mmHg 77%
    03:00 +17°C° 0 mm 3 m/s 755 mmHg 78%
    04:00 +16°C° 0 mm 3 m/s 755 mmHg 78%
    05:00 +17°C° 0 mm 4 m/s 755 mmHg 74%
    06:00 +18°C° 0 mm 4 m/s 755 mmHg 70%
    07:00 +20°C° 0 mm 4 m/s 755 mmHg 67%
    08:00 +21°C° 0 mm 4 m/s 755 mmHg 62%
    09:00 +23°C° 0 mm 4 m/s 755 mmHg 57%
    10:00 +26°C° 0 mm 5 m/s 755 mmHg 52%
    11:00 +27°C° 0 mm 5 m/s 755 mmHg 51%
    12:00 +28°C° 0 mm 5 m/s 755 mmHg 49%
    13:00 +29°C° 0 mm 5 m/s 754 mmHg 47%
    14:00 +29°C° 0 mm 4 m/s 754 mmHg 48%
    15:00 +28°C° 0 mm 4 m/s 754 mmHg 49%
    16:00 +28°C° 0 mm 4 m/s 753 mmHg 50%
    17:00 +27°C° 0 mm 4 m/s 753 mmHg 56%
    18:00 +25°C° 0 mm 4 m/s 753 mmHg 63%
    19:00 +22°C° 0 mm 3 m/s 753 mmHg 69%
    20:00 +21°C° 0 mm 3 m/s 753 mmHg 70%
    21:00 +21°C° 0 mm 3 m/s 754 mmHg 72%
    22:00 +20°C° 0 mm 3 m/s 754 mmHg 74%
    23:00 +20°C° 0 mm 3 m/s 754 mmHg 76%

    Mâine, 27 August, Marţi

    Timp Temperatura Precipitaţii Vânt Presiune Umiditate
    00:00 +19°C° 0 mm 3 m/s 754 mmHg 78%
    01:00 +19°C° 0 mm 3 m/s 754 mmHg 80%
    02:00 +18°C° 0 mm 3 m/s 754 mmHg 81%
    03:00 +18°C° 0 mm 3 m/s 753 mmHg 82%
    04:00 +18°C° 0 mm 3 m/s 753 mmHg 83%
    05:00 +19°C° 0 mm 4 m/s 753 mmHg 78%
    06:00 +20°C° 0 mm 4 m/s 754 mmHg 74%
    07:00 +21°C° 0 mm 4 m/s 754 mmHg 70%
    08:00 +23°C° 0 mm 5 m/s 754 mmHg 64%
    09:00 +26°C° 0 mm 5 m/s 754 mmHg 58%
    10:00 +28°C° 0 mm 5 m/s 754 mmHg 53%
    11:00 +29°C° 0 mm 5 m/s 754 mmHg 50%
    12:00 +29°C° 0 mm 5 m/s 754 mmHg 48%
    13:00 +30°C° 0 mm 4 m/s 754 mmHg 45%
    14:00 +30°C° 0 mm 4 m/s 754 mmHg 46%
    15:00 +30°C° 0 mm 4 m/s 753 mmHg 47%
    16:00 +30°C° 0 mm 4 m/s 753 mmHg 48%
    17:00 +28°C° 0 mm 4 m/s 753 mmHg 54%
    18:00 +26°C° 0 mm 4 m/s 753 mmHg 60%
    19:00 +23°C° 0 mm 4 m/s 753 mmHg 66%
    20:00 +22°C° 0 mm 4 m/s 753 mmHg 68%
    21:00 +21°C° 0 mm 4 m/s 753 mmHg 71%
    22:00 +20°C° 0 mm 4 m/s 753 mmHg 73%
    23:00 +20°C° 0 mm 4 m/s 753 mmHg 76%

    Poimâine, 28 August, Miercuri

    Timp Temperatura Precipitaţii Vânt Presiune Umiditate
    00:00 +19°C° 0 mm 4 m/s 753 mmHg 78%
    01:00 +19°C° 0 mm 3 m/s 753 mmHg 81%
    02:00 +18°C° 0 mm 3 m/s 753 mmHg 82%
    03:00 +18°C° 0 mm 3 m/s 753 mmHg 82%
    04:00 +17°C° 0 mm 3 m/s 753 mmHg 83%
    05:00 +18°C° 0 mm 4 m/s 753 mmHg 79%
    06:00 +20°C° 0 mm 4 m/s 753 mmHg 74%
    07:00 +21°C° 0 mm 5 m/s 753 mmHg 70%
    08:00 +23°C° 0 mm 5 m/s 753 mmHg 64%
    09:00 +25°C° 0 mm 5 m/s 752 mmHg 58%
    10:00 +27°C° 0 mm 6 m/s 752 mmHg 52%
    11:00 +28°C° 0 mm 6 m/s 752 mmHg 49%
    12:00 +29°C° 0 mm 6 m/s 752 mmHg 47%
    13:00 +30°C° 0 mm 6 m/s 752 mmHg 44%
    14:00 +30°C° 0 mm 5 m/s 752 mmHg 45%
    15:00 +29°C° 0 mm 5 m/s 751 mmHg 47%
    16:00 +29°C° 0 mm 5 m/s 751 mmHg 48%
    17:00 +27°C° 0 mm 5 m/s 751 mmHg 54%
    18:00 +25°C° 0 mm 4 m/s 751 mmHg 60%
    19:00 +23°C° 0 mm 4 m/s 751 mmHg 66%
    20:00 +22°C° 0 mm 4 m/s 751 mmHg 68%
    21:00 +21°C° 0 mm 4 m/s 751 mmHg 71%
    22:00 +20°C° 0 mm 5 m/s 751 mmHg 74%
    23:00 +20°C° 0 mm 4 m/s 751 mmHg 75%

    29 August, Joi

    Timp Temperatura Precipitaţii Vânt Presiune Umiditate
    00:00 +19°C° 0 mm 4 m/s 751 mmHg 76%
    01:00 +19°C° 0 mm 4 m/s 751 mmHg 77%
    02:00 +18°C° 0 mm 4 m/s 751 mmHg 78%
    03:00 +18°C° 0 mm 4 m/s 750 mmHg 80%
    04:00 +18°C° 0 mm 4 m/s 750 mmHg 81%
    05:00 +17°C° 0 mm 5 m/s 750 mmHg 78%
    06:00 +19°C° 0 mm 5 m/s 750 mmHg 75%
    07:00 +20°C° 0 mm 5 m/s 750 mmHg 72%
    08:00 +22°C° 0 mm 6 m/s 750 mmHg 65%
    09:00 +24°C° 0 mm 6 m/s 750 mmHg 59%
    10:00 +27°C° 0 mm 6 m/s 751 mmHg 52%
    11:00 +28°C° 0 mm 6 m/s 750 mmHg 49%
    12:00 +29°C° 0 mm 6 m/s 750 mmHg 47%
    13:00 +30°C° 0 mm 6 m/s 750 mmHg 44%
    14:00 +29°C° 0 mm 6 m/s 750 mmHg 46%
    15:00 +29°C° 0 mm 5 m/s 749 mmHg 48%
    16:00 +29°C° 0 mm 5 m/s 749 mmHg 49%
    17:00 +27°C° 0 mm 5 m/s 749 mmHg 55%
    18:00 +26°C° 0 mm 5 m/s 749 mmHg 61%
    19:00 +23°C° 0 mm 5 m/s 749 mmHg 67%
    20:00 +22°C° 0 mm 5 m/s 749 mmHg 68%
    21:00 +22°C° 0 mm 5 m/s 749 mmHg 69%
    22:00 +21°C° 0 mm 5 m/s 750 mmHg 70%
    23:00 +20°C° 0.1 mm 5 m/s 749 mmHg 72%

    30 August, Vineri

    Timp Temperatura Precipitaţii Vânt Presiune Umiditate
    00:00 +19°C° 0.1 mm 4 m/s 749 mmHg 75%
    01:00 +18°C° 0.1 mm 4 m/s 749 mmHg 78%
    02:00 +18°C° 0 mm 4 m/s 749 mmHg 77%
    03:00 +18°C° 0 mm 4 m/s 749 mmHg 77%
    04:00 +16°C° 0 mm 5 m/s 749 mmHg 76%
    05:00 +18°C° 0 mm 4 m/s 749 mmHg 74%
    06:00 +18°C° 0 mm 4 m/s 749 mmHg 71%
    07:00 +19°C° 0 mm 3 m/s 749 mmHg 69%
    08:00 +20°C° 0 mm 3 m/s 750 mmHg 64%
    09:00 +22°C° 0 mm 3 m/s 750 mmHg 60%
    10:00 +23°C° 0 mm 4 m/s 750 mmHg 56%
    11:00 +26°C° 0 mm 3 m/s 750 mmHg 53%
    12:00 +27°C° 0 mm 3 m/s 750 mmHg 50%
    13:00 +28°C° 0 mm 3 m/s 750 mmHg 48%
    14:00 +28°C° 0 mm 2 m/s 750 mmHg 48%
    15:00 +28°C° 0 mm 2 m/s 750 mmHg 48%
    16:00 +28°C° 0 mm 2 m/s 750 mmHg 49%
    17:00 +26°C° 0 mm 2 m/s 750 mmHg 54%
    18:00 +25°C° 0 mm 1 m/s 750 mmHg 60%
    19:00 +23°C° 0 mm 1 m/s 750 mmHg 65%
    20:00 +22°C° 0 mm 1 m/s 750 mmHg 68%
    21:00 +22°C° 0 mm 1 m/s 750 mmHg 70%
    22:00 +21°C° 0 mm 1 m/s 751 mmHg 73%
    23:00 +20°C° 0 mm 1 m/s 751 mmHg 76%

    31 August, Sâmbătă

    Timp Temperatura Precipitaţii Vânt Presiune Umiditate
    00:00 +20°C° 0 mm 1 m/s 751 mmHg 78%
    01:00 +19°C° 0 mm 1 m/s 751 mmHg 81%
    02:00 +19°C° 0 mm 1 m/s 751 mmHg 83%
    03:00 +19°C° 0 mm 1 m/s 750 mmHg 84%
    04:00 +18°C° 0 mm 1 m/s 750 mmHg 85%
    05:00 +18°C° 0 mm 2 m/s 750 mmHg 81%
    06:00 +19°C° 0 mm 2 m/s 750 mmHg 76%
    07:00 +20°C° 0 mm 2 m/s 751 mmHg 72%
    08:00 +21°C° 0.1 mm 2 m/s 751 mmHg 68%
    09:00 +24°C° 0.1 mm 2 m/s 751 mmHg 64%
    10:00 +25°C° 0.1 mm 1 m/s 751 mmHg 60%
    11:00 +26°C° 0.1 mm 2 m/s 751 mmHg 57%
    12:00 +27°C° 0.1 mm 2 m/s 751 mmHg 53%
    13:00 +28°C° 0.1 mm 2 m/s 750 mmHg 50%
    14:00 +28°C° 0.2 mm 2 m/s 750 mmHg 51%
    15:00 +28°C° 0.2 mm 2 m/s 750 mmHg 52%
    16:00 +28°C° 0.2 mm 2 m/s 750 mmHg 53%
    17:00 +26°C° 0.8 mm 2 m/s 750 mmHg 61%
    18:00 +24°C° 0.8 mm 2 m/s 750 mmHg 69%
    19:00 +21°C° 0.8 mm 2 m/s 750 mmHg 77%
    20:00 +20°C° 0.6 mm 2 m/s 750 mmHg 79%
    21:00 +19°C° 0.6 mm 2 m/s 750 mmHg 81%
    22:00 +20°C° 0.6 mm 1 m/s 750 mmHg 83%
    23:00 +20°C° 0 mm 1 m/s 750 mmHg 82%
    Arată mai mult